[Iaude] MPEC F94: 2022 FO2 [a=1.15,e=0.31,i=12.1,H=26.7]

mpec at marsden.cfa.harvard.edu mpec at marsden.cfa.harvard.edu
Sun Mar 27 10:53:28 EDT 2022


M.P.E.C. 2022-F94                                Issued 2022 March 27, 14:51 UT

     The Minor Planet Electronic Circulars contain information on unusual
         minor planets and routine data on comets.  They are published
    on behalf of Division F of the International Astronomical Union by the
          Minor Planet Center, Smithsonian Astrophysical Observatory,
                          Cambridge, MA 02138, U.S.A.

             Prepared using the Tamkin Foundation Computer Network

                              MPC at CFA.HARVARD.EDU
            URL https://www.minorplanetcenter.net/    ISSN 1523-6714

                                    2022 FO2                                    


Observations:
     K22F02O* C2022 03 25.25709811 06 15.07 +48 19 11.2          21.94GVEF094G96
     K22F02O  C2022 03 25.26298511 06 23.74 +48 18 30.1          21.91GVEF094G96
     K22F02O  C2022 03 25.26925411 06 33.08 +48 17 45.4          20.76GVEF094G96
     K22F02O  C2022 03 25.27575711 06 42.63 +48 16 59.0          20.97GVEF094G96
     K22F02O KC2022 03 25.40809311 09 54.94 +48 00 31.8          20.98GVEF094I52
     K22F02O KC2022 03 25.41415211 10 03.72 +47 59 44.8          21.18GVEF094I52
     K22F02O KC2022 03 25.42021211 10 12.43 +47 58 58.7          20.92GVEF094I52
     K22F02O 1C2022 03 25.94009 11 22 24.04 +47 01 09.0          20.2 VXEF094033
     K22F02O 1C2022 03 25.94136 11 22 25.49 +47 01 01.1          20.0 VXEF094033
     K22F02O 1C2022 03 25.94262 11 22 26.95 +47 00 53.0          20.3 VXEF094033
     K22F02O 1C2022 03 25.94389 11 22 28.38 +47 00 44.9          20.9 VXEF094033
     K22F02O 1C2022 03 25.94516 11 22 29.87 +47 00 36.4          20.8 VXEF094033
     K22F02O  C2022 03 26.15926811 26 57.37 +46 38 55.3          21.1 GVEF094H01
     K22F02O  C2022 03 26.16275411 27 01.01 +46 38 36.0          20.7 GVEF094H01
     K22F02O  C2022 03 26.17473711 27 13.51 +46 37 28.5          21.6 GVEF094H01
     K22F02O  C2022 03 26.18019111 27 19.17 +46 36 57.2          21.1 GVEF094H01
     K22F02O KC2022 03 27.16950 11 43 06.55 +45 04 08.9          21.4 RqEF094H36
     K22F02O KC2022 03 27.18471 11 43 17.08 +45 02 58.4          21.6 RqEF094H36
     K22F02O KC2022 03 27.23634911 43 58.18 +44 58 59.2          22.10GVEF094I52
     K22F02O KC2022 03 27.23997911 44 00.70 +44 58 41.1          21.53GVEF094I52
     K22F02O KC2022 03 27.24360811 44 03.22 +44 58 23.7          22.41GVEF094I52

Observer details:
033 Karl Schwarzschild Observatory, Tautenburg.  Observers S. Melnikov, C.
    Hoegner, U. Laux, F. Ludwig, B. Stecklum.  Measurer B. Stecklum.  1.34-m
    f/3 Schmidt + CCD.
G96 Mt. Lemmon Survey.  Observer G. J. Leonard.  Measurers E. J. Christensen,
    G. A. Farneth, J. B. Fazekas, D. C. Fuls, A. R. Gibbs, A. D. Grauer, H.
    Groeller, J. K. Hogan, R. A. Kowalski, S. M. Larson, G. J. Leonard, D.
    Rankin, R. L. Seaman, A. Serrano, F. C. Shelly, K. W. Wierzchos.  1.5-m
    reflector + 10K CCD.
H01 Magdalena Ridge Observatory, Socorro.  Observers W. H. Ryan, E. V. Ryan.
    Measurer W. H. Ryan.  2.4-m f/8.9 Ritchey-Chretien + CCD.
H36 Sandlot Observatory, Scranton.  Observer G. Hug.  0.56-m reflector + CCD.
I52 Steward Observatory, Mt. Lemmon Station.  Observers K. W. Wierzchos, H.
    Groeller.  Measurers E. J. Christensen, G. A. Farneth, J. B. Fazekas, D.
    C. Fuls, A. R. Gibbs, A. D. Grauer, H. Groeller, J. K. Hogan, R. A.
    Kowalski, S. M. Larson, G. J. Leonard, D. Rankin, R. L. Seaman, A.
    Serrano, F. C. Shelly, K. W. Wierzchos.

Orbital elements:
2022 FO2                                                 Earth MOID = 0.0034 AU
Epoch 2022 Jan. 21.0 TT = JDT 2459600.5                 Veres                   
M   0.75237              (2000.0)            P               Q                  
n   0.79446664     Peri.  280.91472     -0.15562832     -0.98778823             
a   1.1545665      Node   177.99390     +0.96843399     -0.15404011             
e   0.3053914      Incl.   12.14436     +0.19471885     -0.02336776             
P   1.24           H   26.72          G   0.15           U   7                  
Residuals in seconds of arc
220325 G96  0.3+  0.1-    220325 033  0.1-  0.1-    220326 H01  0.1-  0.1+
220325 G96  0.3-  0.4+    220325 033  0.2-  0.2+    220326 H01  0.0   0.2-
220325 G96  0.4+  0.1+    220325 033  0.0   0.1+    220327 H36 (2.6+  3.0-)
220325 G96  0.1-  0.0     220325 033  0.3-  0.2+    220327 H36 (2.5-  0.2+)
220325 I52  0.1+  0.2-    220325 033  0.0   0.2-    220327 I52  0.2+  0.3+
220325 I52  0.2+  0.3-    220326 H01  0.0   0.3-    220327 I52  0.0   0.2-
220325 I52  0.3-  0.4+    220326 H01  0.1-  0.0     220327 I52  0.1-  0.1+

Ephemeris:
2022 FO2                 a,e,i = 1.15, 0.31, 12                  q = 0.8020
Date    TT    R. A. (2000) Decl.     Delta      r    Elong.  Phase     V
2022 02 25    01 12 08.2 -28 21 44   0.1516  0.8835    42.3   131.1    28.2
...
2022 03 12    01 50 59.8 -22 19 15   0.05572 0.9512    39.6   138.3    27.0
...
2022 03 20    04 32 30.4 +25 18 07   0.01517 0.9909    71.3   107.9    21.7
...
2022 03 26    11 23 37.2 +46 55 11   0.03713 1.0214   129.6    48.8    21.4
2022 03 27    11 40 37.8 +45 18 46   0.04295 1.0266   131.4    46.8    21.7
2022 03 28    11 52 54.4 +43 58 17   0.04888 1.0317   132.7    45.3    22.0
...
2022 04 03    12 26 47.0 +39 07 29   0.08577 1.0626   135.5    41.2    23.1
...
2022 04 11    12 41 45.5 +35 45 29   0.1368  1.1035   135.4    39.6    24.2
...
2022 04 26    12 54 00.9 +31 08 01   0.2379  1.1778   131.7    39.6    25.5

M. P. C. Staff               (C) Copyright 2022 MPC           M.P.E.C. 2022-F94




More information about the Iaude mailing list